When you browse on this site, cookies collect data to enhance your experience and personalize the content and advertising you see.
Visit our Privacy Policy to learn more. By continuing to use the site, you agree to this use of cookies and data.
  • en France
  • Liste des pays
  • À 7 jours
  • Température de l'eau
  • Carte météo
  • Widgets météo
  • user-avatar
    Se connecter

    Météo par heure à Leighton Buzzard

    Ce jour, 22 Août, Jeudi

    Heure Température Précipitation Vent Pression Humidité
    00:00 +13°C° 0 mm 3 m/s 759 mmHg 85%
    01:00 +13°C° 0 mm 3 m/s 759 mmHg 87%
    02:00 +12°C° 0 mm 3 m/s 759 mmHg 90%
    03:00 +12°C° 0 mm 3 m/s 758 mmHg 92%
    04:00 +12°C° 0 mm 4 m/s 759 mmHg 91%
    05:00 +12°C° 0 mm 4 m/s 759 mmHg 89%
    06:00 +13°C° 0 mm 4 m/s 759 mmHg 87%
    07:00 +14°C° 0 mm 4 m/s 759 mmHg 82%
    08:00 +15°C° 0 mm 5 m/s 759 mmHg 77%
    09:00 +17°C° 0 mm 5 m/s 759 mmHg 73%
    10:00 +19°C° 0 mm 5 m/s 759 mmHg 70%
    11:00 +20°C° 0 mm 5 m/s 759 mmHg 68%
    12:00 +22°C° 0 mm 6 m/s 759 mmHg 66%
    13:00 +22°C° 0 mm 6 m/s 759 mmHg 65%
    14:00 +22°C° 0 mm 6 m/s 759 mmHg 64%
    15:00 +23°C° 0 mm 6 m/s 759 mmHg 63%
    16:00 +22°C° 0 mm 5 m/s 759 mmHg 67%
    17:00 +21°C° 0 mm 4 m/s 759 mmHg 71%
    18:00 +21°C° 0 mm 4 m/s 759 mmHg 75%
    19:00 +19°C° 0 mm 3 m/s 759 mmHg 79%
    20:00 +18°C° 0 mm 3 m/s 760 mmHg 83%
    21:00 +17°C° 0 mm 3 m/s 760 mmHg 87%
    22:00 +17°C° 0 mm 3 m/s 760 mmHg 89%
    23:00 +16°C° 0 mm 3 m/s 760 mmHg 91%

    Demain, 23 Août, Vendredi

    Heure Température Précipitation Vent Pression Humidité
    00:00 +16°C° 0 mm 3 m/s 760 mmHg 93%
    01:00 +15°C° 0 mm 2 m/s 760 mmHg 94%
    02:00 +15°C° 0 mm 2 m/s 760 mmHg 95%
    03:00 +15°C° 0 mm 2 m/s 760 mmHg 95%
    04:00 +15°C° 0 mm 2 m/s 760 mmHg 95%
    05:00 +15°C° 0 mm 2 m/s 759 mmHg 95%
    06:00 +15°C° 0 mm 2 m/s 759 mmHg 94%
    07:00 +17°C° 0 mm 2 m/s 760 mmHg 88%
    08:00 +18°C° 0 mm 2 m/s 760 mmHg 82%
    09:00 +20°C° 0 mm 2 m/s 760 mmHg 76%
    10:00 +21°C° 0 mm 2 m/s 760 mmHg 72%
    11:00 +23°C° 0 mm 2 m/s 760 mmHg 67%
    12:00 +24°C° 0 mm 2 m/s 759 mmHg 62%
    13:00 +24°C° 0 mm 2 m/s 759 mmHg 60%
    14:00 +25°C° 0 mm 2 m/s 759 mmHg 58%
    15:00 +25°C° 0 mm 2 m/s 759 mmHg 56%
    16:00 +25°C° 0 mm 2 m/s 758 mmHg 59%
    17:00 +24°C° 0 mm 2 m/s 758 mmHg 63%
    18:00 +24°C° 0 mm 1 m/s 758 mmHg 66%
    19:00 +22°C° 0 mm 1 m/s 758 mmHg 69%
    20:00 +20°C° 0 mm 2 m/s 758 mmHg 71%
    21:00 +18°C° 0 mm 2 m/s 758 mmHg 74%
    22:00 +18°C° 0 mm 1 m/s 758 mmHg 75%
    23:00 +18°C° 0 mm 1 m/s 757 mmHg 75%

    Après-demain, 24 Août, Samedi

    Heure Température Précipitation Vent Pression Humidité
    00:00 +16°C° 0 mm 1 m/s 757 mmHg 76%
    01:00 +16°C° 0 mm 1 m/s 757 mmHg 74%
    02:00 +15°C° 0 mm 1 m/s 757 mmHg 73%
    03:00 +15°C° 0 mm 1 m/s 757 mmHg 72%
    04:00 +15°C° 0 mm 1 m/s 756 mmHg 73%
    05:00 +15°C° 0 mm 1 m/s 756 mmHg 74%
    06:00 +15°C° 0 mm 1 m/s 756 mmHg 74%
    07:00 +17°C° 0 mm 2 m/s 756 mmHg 70%
    08:00 +20°C° 0 mm 2 m/s 756 mmHg 66%
    09:00 +23°C° 0 mm 2 m/s 756 mmHg 62%
    10:00 +24°C° 0 mm 3 m/s 756 mmHg 58%
    11:00 +26°C° 0 mm 3 m/s 756 mmHg 54%
    12:00 +27°C° 0 mm 3 m/s 755 mmHg 50%
    13:00 +27°C° 0 mm 3 m/s 755 mmHg 49%
    14:00 +27°C° 0 mm 3 m/s 755 mmHg 48%
    15:00 +28°C° 0 mm 3 m/s 754 mmHg 47%
    16:00 +27°C° 0 mm 3 m/s 754 mmHg 51%
    17:00 +26°C° 0 mm 2 m/s 754 mmHg 56%
    18:00 +25°C° 0 mm 2 m/s 753 mmHg 60%
    19:00 +23°C° 0 mm 2 m/s 754 mmHg 63%
    20:00 +21°C° 0 mm 2 m/s 754 mmHg 67%
    21:00 +19°C° 0 mm 3 m/s 754 mmHg 71%
    22:00 +19°C° 0 mm 2 m/s 754 mmHg 72%
    23:00 +18°C° 0 mm 2 m/s 753 mmHg 72%

    25 Août, Dimanche

    Heure Température Précipitation Vent Pression Humidité
    00:00 +18°C° 0 mm 2 m/s 753 mmHg 73%
    01:00 +18°C° 0 mm 2 m/s 753 mmHg 73%
    02:00 +18°C° 0 mm 2 m/s 753 mmHg 73%
    03:00 +18°C° 0 mm 2 m/s 753 mmHg 73%
    04:00 +18°C° 0 mm 2 m/s 753 mmHg 73%
    05:00 +18°C° 0 mm 2 m/s 753 mmHg 74%
    06:00 +18°C° 0 mm 2 m/s 752 mmHg 74%
    07:00 +20°C° 0 mm 2 m/s 753 mmHg 70%
    08:00 +21°C° 0 mm 2 m/s 753 mmHg 66%
    09:00 +24°C° 0 mm 3 m/s 753 mmHg 62%
    10:00 +26°C° 0 mm 3 m/s 753 mmHg 56%
    11:00 +28°C° 0 mm 3 m/s 753 mmHg 50%
    12:00 +29°C° 0 mm 3 m/s 753 mmHg 44%
    13:00 +30°C° 0 mm 4 m/s 753 mmHg 43%
    14:00 +30°C° 0 mm 4 m/s 753 mmHg 42%
    15:00 +30°C° 0 mm 4 m/s 753 mmHg 41%
    16:00 +29°C° 0 mm 3 m/s 753 mmHg 47%
    17:00 +28°C° 0 mm 3 m/s 753 mmHg 53%
    18:00 +26°C° 0 mm 2 m/s 753 mmHg 59%
    19:00 +25°C° 0 mm 2 m/s 754 mmHg 63%
    20:00 +23°C° 0 mm 2 m/s 754 mmHg 67%
    21:00 +21°C° 0 mm 1 m/s 754 mmHg 71%
    22:00 +21°C° 0 mm 1 m/s 754 mmHg 72%
    23:00 +20°C° 0 mm 1 m/s 754 mmHg 73%

    26 Août, Lundi

    Heure Température Précipitation Vent Pression Humidité
    00:00 +19°C° 0 mm 2 m/s 754 mmHg 74%
    01:00 +20°C° 0 mm 1 m/s 754 mmHg 76%
    02:00 +19°C° 0 mm 1 m/s 754 mmHg 77%
    03:00 +17°C° 0 mm 0 m/s 754 mmHg 79%
    04:00 +17°C° 0 mm 0 m/s 754 mmHg 79%
    05:00 +17°C° 0 mm 0 m/s 754 mmHg 78%
    06:00 +18°C° 0 mm 0 m/s 754 mmHg 78%
    07:00 +21°C° 0 mm 1 m/s 754 mmHg 72%
    08:00 +23°C° 0 mm 2 m/s 754 mmHg 67%
    09:00 +25°C° 0 mm 2 m/s 754 mmHg 61%
    10:00 +27°C° 0 mm 2 m/s 754 mmHg 56%
    11:00 +28°C° 0 mm 2 m/s 754 mmHg 50%
    12:00 +30°C° 0 mm 2 m/s 754 mmHg 45%
    13:00 +30°C° 0 mm 3 m/s 753 mmHg 44%
    14:00 +31°C° 0 mm 3 m/s 753 mmHg 43%
    15:00 +31°C° 0 mm 3 m/s 753 mmHg 42%
    16:00 +30°C° 0 mm 3 m/s 752 mmHg 48%
    17:00 +28°C° 0 mm 3 m/s 752 mmHg 54%
    18:00 +27°C° 0 mm 4 m/s 752 mmHg 59%
    19:00 +25°C° 0 mm 3 m/s 752 mmHg 62%
    20:00 +24°C° 0 mm 3 m/s 752 mmHg 64%
    21:00 +21°C° 0 mm 3 m/s 752 mmHg 66%
    22:00 +20°C° 0 mm 3 m/s 752 mmHg 68%
    23:00 +19°C° 0 mm 3 m/s 752 mmHg 69%

    27 Août, Mardi

    Heure Température Précipitation Vent Pression Humidité
    00:00 +18°C° 0 mm 2 m/s 751 mmHg 70%
    01:00 +18°C° 0 mm 2 m/s 751 mmHg 75%
    02:00 +18°C° 0 mm 2 m/s 751 mmHg 79%
    03:00 +17°C° 0 mm 2 m/s 750 mmHg 83%
    04:00 +18°C° 0 mm 2 m/s 750 mmHg 85%
    05:00 +18°C° 0 mm 2 m/s 750 mmHg 88%
    06:00 +18°C° 0 mm 2 m/s 750 mmHg 90%
    07:00 +20°C° 0 mm 3 m/s 750 mmHg 84%
    08:00 +21°C° 0 mm 3 m/s 750 mmHg 79%
    09:00 +24°C° 0 mm 3 m/s 750 mmHg 73%
    10:00 +26°C° 0.3 mm 3 m/s 750 mmHg 67%
    11:00 +27°C° 0.3 mm 2 m/s 750 mmHg 62%
    12:00 +29°C° 0.3 mm 2 m/s 749 mmHg 56%
    13:00 +29°C° 0.1 mm 2 m/s 749 mmHg 53%
    14:00 +30°C° 0.1 mm 2 m/s 749 mmHg 49%
    15:00 +30°C° 0.1 mm 2 m/s 749 mmHg 46%
    16:00 +28°C° 1.2 mm 2 m/s 749 mmHg 57%
    17:00 +26°C° 1.2 mm 3 m/s 749 mmHg 67%
    18:00 +24°C° 1.2 mm 3 m/s 748 mmHg 78%
    19:00 +23°C° 0.3 mm 2 m/s 749 mmHg 80%
    20:00 +21°C° 0.3 mm 2 m/s 749 mmHg 83%
    21:00 +20°C° 0.3 mm 2 m/s 749 mmHg 85%
    22:00 +20°C° 0.2 mm 1 m/s 749 mmHg 87%
    23:00 +20°C° 0.2 mm 1 m/s 749 mmHg 89%
    Voir plus